{"data":{"norad_id":61884,"epoch":"2026-09-21T20:08:02.380416Z","epoch_age_seconds":72745,"freshness":"FRESH","line1":"1 61884U 24204L   26264.83891644  .00000038  00000+0  51700-5 0  9990","line2":"2 61884  53.1591 109.2014 0001059  80.8831 279.2307 15.69707283107728","mean_motion":15.69707283,"eccentricity":0.0001059,"inclination_deg":53.1591,"raan_deg":109.2014,"arg_perigee_deg":80.8831,"mean_anomaly_deg":279.2307,"bstar":5.17e-6,"rev_number":10772,"period_min":91.736849003331,"perigee_km":359.02098485044,"apogee_km":360.44806603953,"semimajor_km":6737.871525445,"source":"CELESTRAK","updated_at":"2026-09-22T09:00:49.446442Z"}}